Location: Yellowknife
(62.4500°N, 114.3500°W)
Time: 22:23:20
(UTC-06:00)

Amateur Radio Satellites - All Passes

Search period start: 01 October 2014 21:53
Search period end: 02 October 2014 21:53
Location: Yellowknife, 62.4500°N, 114.3500°W

Satellite Date Start Highest point End Downlink Frequencies (MHz)
Time Altitude Azimuth
Saudisat 1A 01 Oct 21:54:56 21:59:18 59° 215° (SW) 22:03:39 436.775 MHz
FUNcube-1 01 Oct 21:58:05 22:02:33 51° 62° (ENE) 22:07:04 145.950 - 145.970 MHz USB
SO-50 01 Oct 22:00:55 22:05:27 61° 145° (SE) 22:10:07 436.795 FM
UKube-1 01 Oct 22:02:12 22:06:33 72° 253° (WSW) 22:10:57 145.840 MHz, 145.915 MHz
OPAL 01 Oct 22:05:10 22:08:51 20° 329° (NNW) 22:12:30 ?
UOSAT-12 01 Oct 22:25:15 22:29:08 26° 126° (SE) 22:33:04 437.025 FM, 437.400 FM
ZACube-1 01 Oct 22:43:19 22:47:57 83° 253° (WSW) 22:52:39 437.345 MHz
HO-68 01 Oct 23:04:56 23:10:57 28° 273° (W) 23:17:01 435.675 MHz FM
STRAND 1 01 Oct 23:08:03 23:12:14 26° 316° (NW) 23:16:25 ?
Oscar 11 01 Oct 23:08:49 23:12:45 32° 266° (W) 23:16:42 145.825 FM, Beacon 2401.500 USB
FUNcube-1 01 Oct 23:34:48 23:39:07 39° 264° (W) 23:43:30 145.950 - 145.970 MHz USB
Saudisat 1A 01 Oct 23:35:01 23:38:12 20° 237° (WSW) 23:41:22 436.775 MHz
UKube-1 01 Oct 23:40:46 23:43:33 17° 275° (W) 23:46:22 145.840 MHz, 145.915 MHz
SO-50 01 Oct 23:41:25 23:46:04 73° 348° (NNW) 23:50:51 436.795 FM
OPAL 01 Oct 23:43:58 23:46:09 13° 352° (N) 23:48:19 ?
KITSAT 1 01 Oct 23:45:06 23:53:14 75° 16° (NNE) 00:01:21 435.175 FM
UOSAT-12 02 Oct 00:04:03 00:08:45 71° 149° (SSE) 00:13:31 437.025 FM, 437.400 FM
ZACube-1 02 Oct 00:21:38 00:25:04 20° 274° (W) 00:28:33 437.345 MHz
STRAND 1 02 Oct 00:47:55 00:49:59 13° 339° (NNW) 00:52:04 ?
ISS 02 Oct 01:04:35 01:05:53 12° 167° (SSE) 01:07:12 145.800 FM
OPAL 02 Oct 01:20:37 01:23:16 14° 16° (NNE) 01:25:54 ?
SO-50 02 Oct 01:22:16 01:26:59 73° 12° (NNE) 01:31:48 436.795 FM
Oscar 19 02 Oct 01:23:44 01:25:12 11° 75° (ENE) 01:26:39 437.125 CW, 437.150 USB
KITSAT 1 02 Oct 01:40:46 01:48:48 69° 223° (SW) 01:56:48 435.175 FM
UOSAT-12 02 Oct 01:44:19 01:49:04 70° 352° (N) 01:53:50 437.025 FM, 437.400 FM
JAS-1B 02 Oct 01:47:04 01:49:17 12° 74° (ENE) 01:51:30 435.800 - 435.900 CW/SSB
Oscar 16 02 Oct 02:03:30 02:07:19 20° 85° (E) 02:11:05 437.025 USB, Beacon 2401.1428
AO-Echo 02 Oct 02:05:58 02:08:14 13° 79° (ENE) 02:10:33 ?
AO-27 02 Oct 02:15:33 02:18:07 14° 78° (ENE) 02:20:42 436.795 MHz FM
ISS 02 Oct 02:39:59 02:41:36 13° 187° (S) 02:43:12 145.800 FM
Gurwin Techsat 1B 02 Oct 02:45:46 02:48:23 14° 77° (ENE) 02:50:59 435.225 FM
RS-15 02 Oct 02:52:42 03:02:01 35° 112° (ESE) 03:11:21 29.354 - 29.394 USB, Beacon 29.352 USB
OPAL 02 Oct 02:56:30 03:00:46 26° 40° (NE) 03:05:01 ?
Oscar 19 02 Oct 03:01:04 03:06:00 42° 98° (E) 03:10:53 437.125 CW, 437.150 USB
SO-50 02 Oct 03:02:55 03:07:37 62° 215° (SW) 03:12:24 436.795 FM
TMSAT-1 02 Oct 03:13:21 03:16:40 16° 80° (E) 03:19:58 436.925 FM
ITAMSAT 1 02 Oct 03:15:10 03:19:46 30° 92° (E) 03:24:21 435.822 SSB
Uribyol 2 02 Oct 03:15:46 03:20:26 31° 93° (E) 03:25:05 436.500 FM
UOSAT-12 02 Oct 03:24:47 03:29:33 78° 16° (NNE) 03:34:19 437.025 FM, 437.400 FM
JAS-1B 02 Oct 03:36:11 03:41:43 48° 100° (E) 03:47:21 435.800 - 435.900 CW/SSB
KITSAT 1 02 Oct 03:36:26 03:43:06 30° 248° (WSW) 03:49:45 435.175 FM
AO-7 02 Oct 03:39:15 03:42:50 13° 69° (ENE) 03:46:25 29.400 - 29.500 MHz
Oscar 16 02 Oct 03:42:21 03:47:34 75° 107° (ESE) 03:52:44 437.025 USB, Beacon 2401.1428
AO-Echo 02 Oct 03:43:23 03:48:13 50° 100° (E) 03:53:10 ?
AO-27 02 Oct 03:53:49 03:58:56 50° 101° (E) 04:04:02 436.795 MHz FM
STRAND 1 02 Oct 04:01:50 04:04:35 15° 28° (NNE) 04:07:21 ?
Gurwin Techsat 1B 02 Oct 04:24:30 04:29:42 50° 100° (E) 04:34:51 435.225 FM
OPAL 02 Oct 04:33:51 04:39:04 73° 62° (ENE) 04:44:16 ?
Oscar 19 02 Oct 04:40:31 04:45:34 54° 300° (WNW) 04:50:34 437.125 CW, 437.150 USB
SO-50 02 Oct 04:43:53 04:47:33 22° 237° (WSW) 04:51:15 436.795 FM
TMSAT-1 02 Oct 04:52:27 04:57:44 60° 103° (ESE) 05:03:00 436.925 FM
ITAMSAT 1 02 Oct 04:54:33 04:59:48 76° 294° (WNW) 05:05:02 435.822 SSB
Uribyol 2 02 Oct 04:55:10 05:00:25 73° 295° (WNW) 05:05:38 436.500 FM
JAS-2 02 Oct 04:57:29 04:58:37 10° 69° (ENE) 04:59:45 435.800 - 435.900 CW/SSB, 435.910 FM
RS-15 02 Oct 05:01:56 05:12:46 73° 140° (SE) 05:23:44 29.354 - 29.394 USB, Beacon 29.352 USB
UOSAT-12 02 Oct 05:05:03 05:09:41 53° 219° (SW) 05:14:17 437.025 FM, 437.400 FM
Uosat F 02 Oct 05:06:03 05:10:00 22° 88° (E) 05:13:56 435.120 FM
Oscar 16 02 Oct 05:22:02 05:26:39 34° 309° (NW) 05:31:15 437.025 USB, Beacon 2401.1428
AO-Echo 02 Oct 05:22:21 05:27:02 45° 302° (WNW) 05:31:51 ?
JAS-1B 02 Oct 05:27:08 05:32:40 51° 304° (WNW) 05:38:13 435.800 - 435.900 CW/SSB
AO-7 02 Oct 05:30:39 05:38:23 40° 95° (E) 05:46:05 29.400 - 29.500 MHz
AO-27 02 Oct 05:33:31 05:38:32 48° 303° (WNW) 05:43:32 436.795 MHz FM
STRAND 1 02 Oct 05:38:00 05:42:33 34° 51° (NE) 05:47:09 ?
Gurwin Techsat 1B 02 Oct 06:04:38 06:09:45 49° 302° (WNW) 06:14:51 435.225 FM
OPAL 02 Oct 06:13:44 06:18:24 32° 263° (W) 06:23:05 ?
Oscar 19 02 Oct 06:20:22 06:24:03 20° 322° (NW) 06:27:43 437.125 CW, 437.150 USB
MaSat-1 02 Oct 06:28:43 06:32:36 26° 117° (ESE) 06:36:13 437.345 MHz
TMSAT-1 02 Oct 06:32:37 06:37:36 42° 305° (NW) 06:42:34 436.925 FM
ITAMSAT 1 02 Oct 06:34:28 06:38:44 26° 316° (NW) 06:42:59 435.822 SSB
Uribyol 2 02 Oct 06:35:04 06:39:17 25° 317° (NW) 06:43:29 436.500 FM
JAS-2 02 Oct 06:39:50 06:45:38 36° 92° (E) 06:52:04 435.800 - 435.900 CW/SSB, 435.910 FM
Uosat F 02 Oct 06:44:28 06:49:33 84° 110° (ESE) 06:54:37 435.120 FM
UOSAT-12 02 Oct 06:45:51 06:49:01 18° 241° (WSW) 06:52:10 437.025 FM, 437.400 FM
Hamsat 02 Oct 06:47:11 06:50:42 25° 90° (E) 06:54:10 145.90 MHz
AO-Echo 02 Oct 07:01:48 07:04:54 17° 324° (NW) 07:08:02 ?
Oscar 16 02 Oct 07:01:59 07:04:46 15° 332° (NNW) 07:07:34 437.025 USB, Beacon 2401.1428
AO-27 02 Oct 07:13:32 07:17:05 19° 325° (NW) 07:20:38 436.795 MHz FM
RS-15 02 Oct 07:14:17 07:25:17 81° 351° (N) 07:36:30 29.354 - 29.394 USB, Beacon 29.352 USB
STRAND 1 02 Oct 07:16:22 07:21:29 75° 253° (WSW) 07:26:40 ?
JAS-1B 02 Oct 07:18:12 07:22:18 20° 330° (NNW) 07:26:21 435.800 - 435.900 CW/SSB
AO-7 02 Oct 07:23:41 07:32:02 83° 300° (WNW) 07:40:21 29.400 - 29.500 MHz
Gurwin Techsat 1B 02 Oct 07:45:06 07:48:46 19° 325° (NW) 07:52:25 435.225 FM
Oscar 19 02 Oct 08:00:31 08:01:45 11° 346° (NNW) 08:02:58 437.125 CW, 437.150 USB
MaSat-1 02 Oct 08:04:03 08:08:43 87° 138° (SE) 08:12:55 437.345 MHz
SO-67 02 Oct 08:08:29 08:11:18 23° 92° (E) 08:14:07 435.3500 MHz FM
TMSAT-1 02 Oct 08:13:04 08:16:26 17° 328° (NNW) 08:19:48 436.925 FM
ITAMSAT 1 02 Oct 08:14:33 08:16:46 13° 340° (NNW) 08:18:59 435.822 SSB
Uribyol 2 02 Oct 08:15:08 08:17:16 13° 341° (NNW) 08:19:25 436.500 FM
Hamsat 02 Oct 08:22:52 08:27:07 72° 292° (WNW) 08:31:18 145.90 MHz
Uosat F 02 Oct 08:23:37 08:27:59 30° 312° (NW) 08:32:20 435.120 FM
JAS-2 02 Oct 08:25:00 08:31:16 80° 293° (WNW) 08:38:22 435.800 - 435.900 CW/SSB, 435.910 FM
HO-68 02 Oct 08:31:54 08:35:01 13° 71° (ENE) 08:38:08 435.675 MHz FM
AO-27 02 Oct 08:53:39 08:54:53 11° 349° (N) 08:56:07 436.795 MHz FM
STRAND 1 02 Oct 08:57:52 09:01:35 20° 275° (W) 09:05:20 ?
JAS-1B 02 Oct 09:08:16 09:11:02 14° 358° (N) 09:13:44 435.800 - 435.900 CW/SSB
AO-7 02 Oct 09:16:37 09:24:10 41° 325° (NW) 09:31:43 29.400 - 29.500 MHz
Gurwin Techsat 1B 02 Oct 09:25:37 09:27:00 11° 349° (N) 09:28:23 435.225 FM
RS-15 02 Oct 09:27:15 09:38:17 88° 22° (NNE) 09:49:38 29.354 - 29.394 USB, Beacon 29.352 USB
Oscar 19 02 Oct 09:38:20 09:39:05 10° 11° (N) 09:39:51 437.125 CW, 437.150 USB
SO-67 02 Oct 09:41:12 09:44:38 57° 292° (WNW) 09:48:02 435.3500 MHz FM
MaSat-1 02 Oct 09:41:17 09:45:32 40° 338° (NNW) 09:49:19 437.345 MHz
UKube-1 02 Oct 09:41:30 09:42:32 11° 79° (E) 09:43:33 145.840 MHz, 145.915 MHz
TMSAT-1 02 Oct 09:53:32 09:54:32 11° 352° (N) 09:55:33 436.925 FM
ITAMSAT 1 02 Oct 09:53:43 09:54:19 10° 4° (N) 09:54:55 435.822 SSB
Uribyol 2 02 Oct 09:54:04 09:54:47 10° 5° (N) 09:55:30 436.500 FM
Sapphire 02 Oct 09:59:17 10:03:08 20° 112° (ESE) 10:06:59 437.095 MHz 1200 baud AX-25 AFSK
Hamsat 02 Oct 09:59:27 10:02:30 20° 313° (NW) 10:05:32 145.90 MHz
Uosat F 02 Oct 10:03:05 10:05:29 14° 335° (NNW) 10:07:53 435.120 FM
JAS-2 02 Oct 10:10:30 10:15:49 32° 315° (NW) 10:21:41 435.800 - 435.900 CW/SSB, 435.910 FM
Oscar 16 02 Oct 10:17:33 10:19:40 13° 21° (NNE) 10:21:46 437.025 USB, Beacon 2401.1428
HO-68 02 Oct 10:18:10 10:24:56 41° 96° (E) 10:31:41 435.675 MHz FM
ZACube-1 02 Oct 10:23:13 10:25:02 12° 77° (ENE) 10:26:50 437.345 MHz
PCSat 02 Oct 10:23:43 10:28:15 28° 119° (ESE) 10:32:50 145.825 MHz
AO-27 02 Oct 10:30:52 10:32:25 11° 14° (NNE) 10:33:59 436.795 MHz FM
Oscar 11 02 Oct 10:44:56 10:48:39 26° 91° (E) 10:52:19 145.825 FM, Beacon 2401.500 USB
JAS-1B 02 Oct 10:55:41 10:59:41 18° 25° (NNE) 11:03:28 435.800 - 435.900 CW/SSB
Gurwin Techsat 1B 02 Oct 11:03:20 11:04:57 11° 14° (NNE) 11:06:34 435.225 FM
AO-7 02 Oct 11:08:36 11:15:16 28° 352° (N) 11:21:55 29.400 - 29.500 MHz
FUNcube-1 02 Oct 11:12:46 11:16:36 25° 89° (E) 11:20:22 145.950 - 145.970 MHz USB
Oscar 19 02 Oct 11:13:17 11:16:42 18° 35° (NE) 11:20:07 437.125 CW, 437.150 USB
SO-67 02 Oct 11:15:15 11:17:01 14° 313° (NW) 11:18:47 435.3500 MHz FM
UKube-1 02 Oct 11:15:37 11:19:52 46° 101° (E) 11:24:05 145.840 MHz, 145.915 MHz
MaSat-1 02 Oct 11:18:58 11:22:46 30° 2° (N) 11:26:10 437.345 MHz
ITAMSAT 1 02 Oct 11:29:00 11:31:58 16° 28° (NNE) 11:34:57 435.822 SSB
Uribyol 2 02 Oct 11:29:23 11:32:26 16° 29° (NNE) 11:35:30 436.500 FM
TMSAT-1 02 Oct 11:30:33 11:32:27 12° 17° (NNE) 11:34:21 436.925 FM
RS-15 02 Oct 11:39:39 11:50:14 57° 232° (SW) 12:01:10 29.354 - 29.394 USB, Beacon 29.352 USB
Sapphire 02 Oct 11:40:21 11:45:41 60° 135° (SE) 11:51:03 437.095 MHz 1200 baud AX-25 AFSK
AO-Echo 02 Oct 11:52:51 11:55:50 17° 36° (NE) 11:58:53 ?
Oscar 16 02 Oct 11:53:20 11:57:34 26° 44° (NE) 12:01:47 437.025 USB, Beacon 2401.1428
JAS-2 02 Oct 11:55:49 11:59:23 16° 339° (NNW) 12:03:10 435.800 - 435.900 CW/SSB, 435.910 FM
ZACube-1 02 Oct 11:58:04 12:02:36 50° 100° (E) 12:07:00 437.345 MHz
PCSat 02 Oct 12:05:40 12:11:06 78° 141° (SE) 12:16:34 145.825 MHz
HO-68 02 Oct 12:06:02 12:13:14 75° 300° (WNW) 12:20:24 435.675 MHz FM
AO-27 02 Oct 12:06:31 12:10:18 21° 38° (NE) 12:14:06 436.795 MHz FM
Oscar 11 02 Oct 12:20:55 12:25:16 69° 293° (WNW) 12:29:34 145.825 FM, Beacon 2401.500 USB
Gurwin Techsat 1B 02 Oct 12:39:24 12:43:14 21° 38° (NE) 12:47:06 435.225 FM
JAS-1B 02 Oct 12:43:04 12:49:07 40° 51° (NE) 12:54:31 435.800 - 435.900 CW/SSB
FUNcube-1 02 Oct 12:48:53 12:53:31 78° 291° (WNW) 12:58:03 145.950 - 145.970 MHz USB
Oscar 19 02 Oct 12:50:07 12:55:04 46° 57° (ENE) 13:00:00 437.125 CW, 437.150 USB
UKube-1 02 Oct 12:51:58 12:56:06 41° 302° (WNW) 13:00:12 145.840 MHz, 145.915 MHz
MaSat-1 02 Oct 12:56:02 12:59:58 45° 26° (NNE) 13:03:22 437.345 MHz
AO-7 02 Oct 12:59:09 13:06:05 31° 19° (NNE) 13:13:00 29.400 - 29.500 MHz
ITAMSAT 1 02 Oct 13:05:34 13:10:16 36° 51° (NE) 13:15:00 435.822 SSB
Uribyol 2 02 Oct 13:06:00 13:10:44 37° 52° (NE) 13:15:31 436.500 FM
TMSAT-1 02 Oct 13:06:43 13:10:47 23° 41° (NE) 13:14:52 436.925 FM
Uosat F 02 Oct 13:17:11 13:19:19 13° 23° (NNE) 13:21:27 435.120 FM
Sapphire 02 Oct 13:23:47 13:29:12 66° 339° (NNW) 13:34:39 437.095 MHz 1200 baud AX-25 AFSK
AO-Echo 02 Oct 13:29:10 13:33:41 46° 59° (ENE) 13:38:18 ?
Oscar 16 02 Oct 13:31:09 13:36:21 77° 67° (ENE) 13:41:34 437.025 USB, Beacon 2401.1428
ZACube-1 02 Oct 13:34:39 13:38:59 41° 301° (WNW) 13:43:15 437.345 MHz
JAS-2 02 Oct 13:39:38 13:42:21 14° 5° (N) 13:45:12 435.800 - 435.900 CW/SSB, 435.910 FM
AO-27 02 Oct 13:43:55 13:48:59 55° 60° (ENE) 13:54:05 436.795 MHz FM
PCSat 02 Oct 13:49:27 13:54:50 58° 346° (NNW) 14:00:14 145.825 MHz
RS-15 02 Oct 13:52:17 14:00:11 24° 259° (W) 14:08:18 29.354 - 29.394 USB, Beacon 29.352 USB
HO-68 02 Oct 13:53:56 14:00:12 34° 324° (NW) 14:06:27 435.675 MHz FM
Oscar 11 02 Oct 13:57:42 14:00:51 20° 314° (NW) 14:04:00 145.825 FM, Beacon 2401.500 USB
Gurwin Techsat 1B 02 Oct 14:17:10 14:22:21 55° 60° (ENE) 14:27:33 435.225 FM
FUNcube-1 02 Oct 14:25:46 14:29:22 23° 313° (NW) 14:32:55 145.950 - 145.970 MHz USB
UKube-1 02 Oct 14:29:01 14:31:23 15° 324° (NW) 14:33:45 145.840 MHz, 145.915 MHz
Oscar 19 02 Oct 14:29:22 14:34:27 52° 259° (W) 14:39:32 437.125 CW, 437.150 USB
MaSat-1 02 Oct 14:32:43 14:36:31 55° 231° (SW) 14:39:47 437.345 MHz
JAS-1B 02 Oct 14:32:50 14:39:41 72° 253° (WSW) 14:45:38 435.800 - 435.900 CW/SSB
ITAMSAT 1 02 Oct 14:44:21 14:49:33 71° 254° (WSW) 14:54:47 435.822 SSB
TMSAT-1 02 Oct 14:44:44 14:49:58 64° 63° (ENE) 14:55:14 436.925 FM
Uribyol 2 02 Oct 14:44:50 14:50:02 68° 254° (WSW) 14:55:17 436.500 FM
AO-7 02 Oct 14:49:35 14:57:31 53° 45° (NE) 15:05:29 29.400 - 29.500 MHz
Uosat F 02 Oct 14:52:33 14:56:44 27° 46° (NE) 15:00:57 435.120 FM
Sapphire 02 Oct 15:07:57 15:13:17 53° 4° (N) 15:18:38 437.095 MHz 1200 baud AX-25 AFSK
AO-Echo 02 Oct 15:08:03 15:12:34 45° 261° (W) 15:17:13 ?
Oscar 16 02 Oct 15:11:43 15:16:15 29° 269° (W) 15:20:48 437.025 USB, Beacon 2401.1428
ZACube-1 02 Oct 15:11:52 15:14:24 15° 324° (NW) 15:16:56 437.345 MHz
JAS-2 02 Oct 15:21:30 15:25:29 21° 31° (NNE) 15:29:46 435.800 - 435.900 CW/SSB, 435.910 FM
AO-27 02 Oct 15:23:48 15:28:44 42° 262° (W) 15:33:42 436.795 MHz FM
Saudisat 1A 02 Oct 15:29:20 15:33:09 29° 130° (SE) 15:37:00 436.775 MHz
PCSat 02 Oct 15:33:35 15:38:58 56° 11° (N) 15:44:20 145.825 MHz
HO-68 02 Oct 15:41:04 15:46:12 22° 349° (N) 15:51:20 435.675 MHz FM
Gurwin Techsat 1B 02 Oct 15:57:28 16:02:32 44° 262° (W) 16:07:38 435.225 FM
MaSat-1 02 Oct 16:10:43 16:11:58 12° 255° (WSW) 16:13:11 437.345 MHz
Oscar 19 02 Oct 16:12:22 16:15:03 14° 282° (WNW) 16:17:43 437.125 CW, 437.150 USB
Hamsat 02 Oct 16:16:37 16:19:38 19° 46° (NE) 16:22:38 145.90 MHz
KITSAT 1 02 Oct 16:25:11 16:29:15 15° 98° (E) 16:33:19 435.175 FM
TMSAT-1 02 Oct 16:25:22 16:30:15 37° 265° (W) 16:35:11 436.925 FM
ITAMSAT 1 02 Oct 16:26:18 16:30:00 19° 276° (W) 16:33:44 435.822 SSB
JAS-1B 02 Oct 16:26:28 16:31:26 21° 275° (W) 16:35:59 435.800 - 435.900 CW/SSB
Uribyol 2 02 Oct 16:26:54 16:30:31 19° 277° (W) 16:34:08 436.500 FM
Uosat F 02 Oct 16:30:02 16:35:04 86° 68° (ENE) 16:40:08 435.120 FM
AO-7 02 Oct 16:41:56 16:50:14 71° 250° (WSW) 16:58:33 29.400 - 29.500 MHz
AO-Echo 02 Oct 16:51:22 16:52:42 11° 284° (WNW) 16:54:02 ?
Sapphire 02 Oct 16:51:48 16:57:17 77° 28° (NNE) 17:02:44 437.095 MHz 1200 baud AX-25 AFSK
JAS-2 02 Oct 17:04:16 17:09:26 49° 56° (ENE) 17:15:09 435.800 - 435.900 CW/SSB, 435.910 FM
Saudisat 1A 02 Oct 17:07:54 17:12:20 79° 153° (SSE) 17:16:47 436.775 MHz
AO-27 02 Oct 17:08:18 17:09:44 11° 285° (WNW) 17:11:10 436.795 MHz FM
PCSat 02 Oct 17:17:18 17:22:47 87° 215° (SW) 17:28:15 145.825 MHz
SO-67 02 Oct 17:21:18 17:22:24 11° 44° (NE) 17:23:31 435.3500 MHz FM
HO-68 02 Oct 17:26:36 17:31:52 23° 15° (NNE) 17:37:09 435.675 MHz FM
Gurwin Techsat 1B 02 Oct 17:42:07 17:43:59 12° 285° (WNW) 17:45:51 435.225 FM
Hamsat 02 Oct 17:50:42 17:54:59 67° 68° (ENE) 17:59:15 145.90 MHz
Uosat F 02 Oct 18:10:22 18:14:30 25° 270° (W) 18:18:40 435.120 FM
OPAL 02 Oct 18:11:48 18:16:22 31° 96° (E) 18:20:51 ?
KITSAT 1 02 Oct 18:15:09 18:22:36 43° 122° (ESE) 18:30:05 435.175 FM
Sapphire 02 Oct 18:35:23 18:40:34 45° 232° (SW) 18:45:43 437.095 MHz 1200 baud AX-25 AFSK
AO-7 02 Oct 18:37:52 18:44:35 27° 275° (W) 18:51:20 29.400 - 29.500 MHz
Saudisat 1A 02 Oct 18:47:41 18:52:06 67° 356° (N) 18:56:32 436.775 MHz
JAS-2 02 Oct 18:49:31 18:54:42 50° 262° (W) 19:00:24 435.800 - 435.900 CW/SSB, 435.910 FM
SO-67 02 Oct 18:51:22 18:54:40 44° 65° (ENE) 18:58:00 435.3500 MHz FM
PCSat 02 Oct 19:00:58 19:05:47 33° 238° (WSW) 19:10:35 145.825 MHz
HO-68 02 Oct 19:11:33 19:18:01 38° 41° (NE) 19:24:30 435.675 MHz FM
UKube-1 02 Oct 19:12:42 19:14:47 13° 34° (NE) 19:16:52 145.840 MHz, 145.915 MHz
STRAND 1 02 Oct 19:16:17 19:19:54 19° 84° (E) 19:23:30 ?
Hamsat 02 Oct 19:27:39 19:31:20 27° 269° (W) 19:35:01 145.90 MHz
OPAL 02 Oct 19:50:35 19:55:45 74° 298° (WNW) 20:00:49 ?
ZACube-1 02 Oct 19:55:55 19:58:08 13° 34° (NE) 20:00:21 437.345 MHz
KITSAT 1 02 Oct 20:09:20 20:17:28 87° 148° (SSE) 20:25:36 435.175 FM
Oscar 11 02 Oct 20:15:41 20:18:59 21° 47° (NE) 20:22:18 145.825 FM, Beacon 2401.500 USB
Sapphire 02 Oct 20:20:06 20:22:48 14° 254° (WSW) 20:25:30 437.095 MHz 1200 baud AX-25 AFSK
SO-67 02 Oct 20:24:46 20:27:50 29° 265° (W) 20:30:56 435.3500 MHz FM
Saudisat 1A 02 Oct 20:27:31 20:31:59 82° 19° (NNE) 20:36:26 436.775 MHz
JAS-2 02 Oct 20:38:56 20:41:32 13° 287° (WNW) 20:44:15 435.800 - 435.900 CW/SSB, 435.910 FM
FUNcube-1 02 Oct 20:44:42 20:48:10 21° 46° (NE) 20:51:40 145.950 - 145.970 MHz USB
UKube-1 02 Oct 20:45:59 20:49:59 37° 56° (NE) 20:54:01 145.840 MHz, 145.915 MHz
SO-50 02 Oct 20:47:48 20:51:55 34° 132° (SE) 20:56:09 436.795 FM
STRAND 1 02 Oct 20:54:52 21:00:03 70° 106° (ESE) 21:05:12 ?
HO-68 02 Oct 20:58:01 21:05:12 88° 65° (ENE) 21:12:27 435.675 MHz FM
UOSAT-12 02 Oct 21:08:37 21:10:20 12° 113° (ESE) 21:12:03 437.025 FM, 437.400 FM
ZACube-1 02 Oct 21:29:15 21:33:27 35° 56° (NE) 21:37:41 437.345 MHz
OPAL 02 Oct 21:29:49 21:34:04 26° 320° (NW) 21:38:15 ?
